Time,TemperatureF,DewpointF,PressureIn,WindDirection,WindDirectionDegrees,WindSpeedMPH,WindSpeedGustMPH,Humidity,HourlyPrecipIn,Conditions,Clouds,dailyrainin,SoftwareType,DateUTC
2013-05-20 00:21:00,64.0,63.0,-100.00,ENE,65,3.0,6.0,98,0.00,,,0.00,,2013-05-20 05:21:00,
2013-05-20 00:42:00,64.0,63.0,-100.00,ENE,75,4.0,7.0,98,0.00,,,0.00,,2013-05-20 05:42:00,
2013-05-20 00:51:00,64.0,63.0,-100.00,East,80,4.0,10.0,98,0.00,,,0.00,,2013-05-20 05:51:00,
2013-05-20 01:01:00,63.0,63.0,-100.00,East,90,9.0,14.0,98,0.00,,,0.00,,2013-05-20 06:01:00,
2013-05-20 01:11:00,63.0,63.0,-100.00,East,95,9.0,13.0,98,0.00,,,0.00,,2013-05-20 06:11:00,
2013-05-20 01:21:00,61.0,61.0,-100.00,ENE,60,7.0,16.0,98,0.00,,,0.00,,2013-05-20 06:21:00,
2013-05-20 01:41:00,60.0,59.0,-100.00,ENE,70,7.0,17.0,98,0.00,,,0.00,,2013-05-20 06:41:00,
2013-05-20 01:52:00,60.0,59.0,-100.00,ENE,60,7.0,14.0,98,0.00,,,0.00,,2013-05-20 06:52:00,
2013-05-20 02:01:00,60.0,59.0,-100.00,ENE,65,7.0,13.0,99,0.00,,,0.00,,2013-05-20 07:01:00,
2013-05-20 02:12:00,60.0,59.0,-100.00,ENE,75,6.0,13.0,99,0.00,,,0.00,,2013-05-20 07:12:00,
2013-05-20 02:21:00,60.0,59.0,-100.00,ENE,75,6.0,11.0,99,0.00,,,0.00,,2013-05-20 07:21:00,
2013-05-20 02:32:00,60.0,59.0,-100.00,East,90,8.0,14.0,99,0.00,,,0.00,,2013-05-20 07:32:00,
2013-05-20 02:42:00,60.0,59.0,-100.00,ENE,70,8.0,12.0,99,0.00,,,0.00,,2013-05-20 07:42:00,
2013-05-20 02:52:00,60.0,59.0,-100.00,East,80,5.0,12.0,99,0.00,,,0.00,,2013-05-20 07:52:00,
2013-05-20 03:01:00,60.0,59.0,-100.00,ENE,65,4.0,12.0,99,0.00,,,0.00,,2013-05-20 08:01:00,
2013-05-20 03:11:00,60.0,59.0,-100.00,East,90,6.0,9.0,99,0.00,,,0.00,,2013-05-20 08:11:00,
2013-05-20 03:21:00,60.0,59.0,-100.00,East,90,7.0,10.0,99,0.00,,,0.00,,2013-05-20 08:21:00,
2013-05-20 03:32:00,60.0,59.0,-100.00,East,85,6.0,10.0,99,0.00,,,0.00,,2013-05-20 08:32:00,
2013-05-20 04:02:00,61.0,61.0,-100.00,ENE,75,6.0,9.0,99,0.00,,,0.00,,2013-05-20 09:02:00,
2013-05-20 04:12:00,61.0,61.0,-100.00,East,90,6.0,10.0,99,0.00,,,0.00,,2013-05-20 09:12:00,
2013-05-20 04:21:00,61.0,61.0,-100.00,East,90,4.0,9.0,99,0.00,,,0.00,,2013-05-20 09:21:00,
2013-05-20 04:32:00,61.0,61.0,-100.00,East,90,5.0,7.0,99,0.00,,,0.00,,2013-05-20 09:32:00,
2013-05-20 04:43:00,62.0,61.0,-100.00,East,90,4.0,7.0,99,0.00,,,0.00,,2013-05-20 09:43:00,
2013-05-20 04:52:00,61.0,61.0,-100.00,ENE,70,4.0,7.0,99,0.00,,,0.00,,2013-05-20 09:52:00,
2013-05-20 05:32:00,60.0,59.0,-100.00,NE,50,6.0,7.0,99,0.00,,,0.00,,2013-05-20 10:32:00,
2013-05-20 05:42:00,59.0,59.0,-100.00,East,80,4.0,7.0,99,0.00,,,0.00,,2013-05-20 10:42:00,
2013-05-20 05:52:00,59.0,59.0,-100.00,ENE,70,4.0,6.0,99,0.00,,,0.00,,2013-05-20 10:52:00,
2013-05-20 06:02:00,59.0,59.0,-100.00,ENE,75,4.0,7.0,99,0.00,,,0.00,,2013-05-20 11:02:00,
2013-05-20 06:32:00,59.0,59.0,-100.00,SW,215,1.0,9.0,99,0.00,,,0.00,,2013-05-20 11:32:00,
2013-05-20 06:41:00,59.0,59.0,-100.00,East,85,4.0,6.0,99,0.00,,,0.00,,2013-05-20 11:41:00,
2013-05-20 06:51:00,59.0,59.0,-100.00,NE,55,0.0,3.0,99,0.00,,,0.00,,2013-05-20 11:51:00,
2013-05-20 07:01:00,60.0,59.0,-100.00,East,95,4.0,6.0,99,0.00,,,0.00,,2013-05-20 12:01:00,
2013-05-20 07:11:00,60.0,59.0,-100.00,ESE,105,4.0,6.0,99,0.00,,,0.00,,2013-05-20 12:11:00,
2013-05-20 07:31:00,62.0,61.0,-100.00,SE,145,5.0,10.0,99,0.00,,,0.00,,2013-05-20 12:31:00,
2013-05-20 07:41:00,62.0,61.0,-100.00,SE,130,6.0,12.0,99,0.00,,,0.00,,2013-05-20 12:41:00,
2013-05-20 07:52:00,62.0,61.0,-100.00,SE,140,7.0,9.0,99,0.00,,,0.00,,2013-05-20 12:52:00,
2013-05-20 08:01:00,62.0,61.0,-100.00,SE,140,7.0,11.0,99,0.00,,,0.00,,2013-05-20 13:01:00,
2013-05-20 08:11:00,62.0,61.0,-100.00,SE,140,7.0,11.0,99,0.00,,,0.00,,2013-05-20 13:11:00,
2013-05-20 08:22:00,62.0,61.0,-100.00,SE,135,6.0,11.0,99,0.00,,,0.00,,2013-05-20 13:22:00,
2013-05-20 08:31:00,62.0,61.0,-100.00,SE,130,7.0,14.0,99,0.00,,,0.00,,2013-05-20 13:31:00,
2013-05-20 08:41:00,62.0,61.0,-100.00,SE,140,7.0,11.0,99,0.00,,,0.00,,2013-05-20 13:41:00,
2013-05-20 08:52:00,62.0,61.0,-100.00,SE,145,7.0,13.0,99,0.00,,,0.00,,2013-05-20 13:52:00,
2013-05-20 09:01:00,62.0,61.0,-100.00,SSE,150,9.0,12.0,99,0.00,,,0.00,,2013-05-20 14:01:00,
2013-05-20 09:11:00,62.0,61.0,-100.00,SE,140,7.0,12.0,99,0.00,,,0.00,,2013-05-20 14:11:00,
2013-05-20 09:22:00,61.0,61.0,-100.00,SSE,160,8.0,11.0,99,0.00,,,0.00,,2013-05-20 14:22:00,
2013-05-20 09:32:00,61.0,61.0,-100.00,South,175,9.0,14.0,99,0.00,,,0.00,,2013-05-20 14:32:00,
2013-05-20 09:41:00,61.0,61.0,-100.00,SSE,160,7.0,14.0,99,0.00,,,0.00,,2013-05-20 14:41:00,
2013-05-20 09:52:00,61.0,61.0,-100.00,SSE,165,9.0,12.0,99,0.00,,,0.00,,2013-05-20 14:52:00,
2013-05-20 10:01:00,61.0,61.0,-100.00,South,170,12.0,18.0,99,0.00,,,0.00,,2013-05-20 15:01:00,
2013-05-20 10:11:00,62.0,61.0,-100.00,SSE,160,11.0,18.0,98,0.00,,,0.00,,2013-05-20 15:11:00,
2013-05-20 10:21:00,63.0,63.0,-100.00,SSE,155,9.0,17.0,98,0.00,,,0.00,,2013-05-20 15:21:00,
2013-05-20 10:33:00,64.0,63.0,-100.00,SE,145,12.0,21.0,97,0.00,,,0.00,,2013-05-20 15:33:00,
2013-05-20 10:42:00,64.0,63.0,-100.00,South,180,12.0,18.0,95,0.00,,,0.00,,2013-05-20 15:42:00,
2013-05-20 10:53:00,65.0,63.0,-100.00,South,175,11.0,18.0,92,0.00,,,0.00,,2013-05-20 15:53:00,
2013-05-20 11:03:00,67.0,63.0,-100.00,South,180,15.0,22.0,88,0.00,,,0.00,,2013-05-20 16:03:00,
2013-05-20 11:12:00,67.0,63.0,-100.00,South,185,13.0,22.0,87,0.00,,,0.00,,2013-05-20 16:12:00,
2013-05-20 11:22:00,68.0,64.0,-100.00,South,190,14.0,20.0,86,0.00,,,0.00,,2013-05-20 16:22:00,
2013-05-20 11:33:00,69.0,63.0,-100.00,South,180,14.0,24.0,83,0.00,,,0.00,,2013-05-20 16:33:00,
2013-05-20 11:42:00,69.0,63.0,-100.00,South,175,13.0,21.0,80,0.00,,,0.00,,2013-05-20 16:42:00,
2013-05-20 11:52:00,70.0,64.0,-100.00,South,190,12.0,24.0,80,0.00,,,0.00,,2013-05-20 16:52:00,
2013-05-20 12:02:00,70.0,63.0,-100.00,South,185,16.0,24.0,79,0.00,,,0.00,,2013-05-20 17:02:00,
2013-05-20 12:12:00,70.0,64.0,-100.00,South,185,12.0,22.0,80,0.00,,,0.00,,2013-05-20 17:12:00,
2013-05-20 12:22:00,70.0,63.0,-100.00,SSE,160,14.0,22.0,79,0.00,,,0.00,,2013-05-20 17:22:00,
2013-05-20 12:33:00,71.0,64.0,-100.00,SE,145,14.0,22.0,79,0.00,,,0.00,,2013-05-20 17:33:00,
2013-05-20 12:45:00,70.0,63.0,-100.00,SSE,150,16.0,22.0,78,0.00,,,0.00,,2013-05-20 17:45:00,
2013-05-20 12:53:00,69.0,63.0,-100.00,South,170,11.0,22.0,80,0.00,,,0.00,,2013-05-20 17:53:00,
2013-05-20 13:02:00,70.0,64.0,-100.00,SSE,150,11.0,21.0,81,0.00,,,0.00,,2013-05-20 18:02:00,
2013-05-20 13:12:00,69.0,63.0,-100.00,SE,145,13.0,21.0,81,0.00,,,0.00,,2013-05-20 18:12:00,
2013-05-20 13:23:00,68.0,63.0,-100.00,South,180,18.0,25.0,85,0.00,,,0.00,,2013-05-20 18:23:00,
2013-05-20 13:32:00,68.0,64.0,-100.00,South,170,12.0,25.0,88,0.00,,,0.00,,2013-05-20 18:32:00,
2013-05-20 13:41:00,68.0,64.0,-100.00,SSE,155,10.0,22.0,89,0.00,,,0.00,,2013-05-20 18:41:00,
2013-05-20 13:55:00,68.0,64.0,-100.00,South,180,12.0,22.0,86,0.00,,,0.00,,2013-05-20 18:55:00,
2013-05-20 14:04:00,68.0,64.0,-100.00,South,170,16.0,22.0,87,0.00,,,0.00,,2013-05-20 19:04:00,
2013-05-20 14:11:00,65.0,63.0,-100.00,SSW,195,15.0,23.0,92,0.00,,,0.00,,2013-05-20 19:11:00,
2013-05-20 14:21:00,66.0,64.0,-100.00,South,175,12.0,21.0,93,0.00,,,0.00,,2013-05-20 19:21:00,
2013-05-20 14:32:00,66.0,64.0,-100.00,South,185,15.0,22.0,93,0.00,,,0.00,,2013-05-20 19:32:00,
2013-05-20 14:41:00,68.0,66.0,-100.00,South,190,12.0,22.0,92,0.00,,,0.00,,2013-05-20 19:41:00,
2013-05-20 14:52:00,66.0,64.0,-100.00,South,175,13.0,21.0,91,0.00,,,0.00,,2013-05-20 19:52:00,
2013-05-20 15:01:00,67.0,64.0,-100.00,South,190,12.0,22.0,91,0.00,,,0.00,,2013-05-20 20:01:00,
2013-05-20 15:12:00,67.0,64.0,-100.00,South,185,11.0,22.0,91,0.00,,,0.00,,2013-05-20 20:12:00,
2013-05-20 15:21:00,67.0,64.0,-100.00,South,190,13.0,22.0,89,0.00,,,0.00,,2013-05-20 20:21:00,
2013-05-20 15:32:00,67.0,66.0,-100.00,SSW,195,11.0,19.0,95,0.00,,,0.00,,2013-05-20 20:32:00,
2013-05-20 15:42:00,67.0,66.0,-100.00,SSW,210,12.0,21.0,95,0.00,,,0.00,,2013-05-20 20:42:00,
2013-05-20 15:51:00,68.0,66.0,-100.00,SSW,210,11.0,19.0,94,0.00,,,0.00,,2013-05-20 20:51:00,
2013-05-20 16:01:00,68.0,66.0,-100.00,South,180,11.0,21.0,93,0.00,,,0.00,,2013-05-20 21:01:00,
2013-05-20 16:11:00,67.0,64.0,-100.00,SSW,200,16.0,24.0,91,0.00,,,0.00,,2013-05-20 21:11:00,
2013-05-20 16:21:00,66.0,63.0,-100.00,SSW,200,20.0,29.0,90,0.00,,,0.00,,2013-05-20 21:21:00,
2013-05-20 16:32:00,65.0,63.0,-100.00,SSW,210,17.0,26.0,90,0.00,,,0.00,,2013-05-20 21:32:00,
2013-05-20 16:43:00,66.0,63.0,-100.00,SSW,210,14.0,24.0,89,0.00,,,0.00,,2013-05-20 21:43:00,
2013-05-20 16:53:00,66.0,63.0,-100.00,South,185,13.0,21.0,87,0.00,,,0.00,,2013-05-20 21:53:00,
2013-05-20 17:02:00,66.0,61.0,-100.00,SSW,195,10.0,18.0,85,0.00,,,0.00,,2013-05-20 22:02:00,
2013-05-20 17:12:00,67.0,63.0,-100.00,South,190,11.0,22.0,83,0.00,,,0.00,,2013-05-20 22:12:00,
2013-05-20 17:23:00,69.0,63.0,-100.00,South,170,15.0,21.0,80,0.00,,,0.00,,2013-05-20 22:23:00,
2013-05-20 17:33:00,69.0,63.0,-100.00,South,175,12.0,21.0,79,0.00,,,0.00,,2013-05-20 22:33:00,
2013-05-20 17:42:00,68.0,61.0,-100.00,South,175,15.0,25.0,77,0.00,,,0.00,,2013-05-20 22:42:00,
2013-05-20 17:52:00,68.0,63.0,-100.00,South,180,12.0,25.0,82,0.00,,,0.00,,2013-05-20 22:52:00,
2013-05-20 18:02:00,67.0,63.0,-100.00,South,180,9.0,21.0,84,0.00,,,0.00,,2013-05-20 23:02:00,
2013-05-20 18:12:00,67.0,63.0,-100.00,SSE,165,10.0,21.0,83,0.00,,,0.00,,2013-05-20 23:12:00,
2013-05-20 18:22:00,68.0,63.0,-100.00,South,175,12.0,17.0,82,0.00,,,0.00,,2013-05-20 23:22:00,
2013-05-20 18:32:00,68.0,63.0,-100.00,South,170,10.0,17.0,81,0.00,,,0.00,,2013-05-20 23:32:00,
2013-05-20 18:42:00,67.0,61.0,-100.00,South,175,9.0,17.0,81,0.00,,,0.00,,2013-05-20 23:42:00,
2013-05-20 18:52:00,67.0,61.0,-100.00,South,170,7.0,16.0,81,0.00,,,0.00,,2013-05-20 23:52:00,
2013-05-20 19:01:00,68.0,61.0,-100.00,South,170,8.0,14.0,81,0.00,,,0.00,,2013-05-21 00:01:00,
2013-05-20 19:11:00,68.0,61.0,-100.00,SSE,150,8.0,14.0,81,0.00,,,0.00,,2013-05-21 00:11:00,
2013-05-20 19:21:00,67.0,61.0,-100.00,SSE,165,7.0,11.0,81,0.00,,,0.00,,2013-05-21 00:21:00,
2013-05-20 19:32:00,67.0,63.0,-100.00,SSE,150,7.0,9.0,83,0.00,,,0.00,,2013-05-21 00:32:00,
2013-05-20 19:41:00,67.0,63.0,-100.00,SSE,155,4.0,12.0,84,0.00,,,0.00,,2013-05-21 00:41:00,
2013-05-20 19:52:00,67.0,63.0,-100.00,SE,145,4.0,7.0,85,0.00,,,0.00,,2013-05-21 00:52:00,
2013-05-20 20:01:00,67.0,63.0,-100.00,SE,140,4.0,6.0,86,0.00,,,0.00,,2013-05-21 01:01:00,
2013-05-20 20:11:00,67.0,63.0,-100.00,SE,140,3.0,6.0,86,0.00,,,0.00,,2013-05-21 01:11:00,
2013-05-20 20:21:00,67.0,63.0,-100.00,SE,130,4.0,6.0,86,0.00,,,0.00,,2013-05-21 01:21:00,
2013-05-20 20:32:00,67.0,63.0,-100.00,SE,140,4.0,6.0,87,0.00,,,0.00,,2013-05-21 01:32:00,
2013-05-20 20:42:00,67.0,63.0,-100.00,SSE,150,2.0,6.0,88,0.00,,,0.00,,2013-05-21 01:42:00,
2013-05-20 20:52:00,66.0,63.0,-100.00,SSE,150,4.0,6.0,88,0.00,,,0.00,,2013-05-21 01:52:00,
2013-05-20 21:02:00,66.0,61.0,-100.00,SSE,165,7.0,13.0,84,0.00,,,0.00,,2013-05-21 02:02:00,
2013-05-20 21:11:00,65.0,61.0,-100.00,South,185,9.0,13.0,87,0.00,,,0.00,,2013-05-21 02:11:00,
2013-05-20 21:21:00,62.0,61.0,-100.00,SSW,195,7.0,18.0,96,0.00,,,0.00,,2013-05-21 02:21:00,
2013-05-20 21:32:00,61.0,61.0,-100.00,SSE,165,4.0,10.0,97,0.00,,,0.00,,2013-05-21 02:32:00,
2013-05-20 21:41:00,60.0,59.0,-100.00,South,180,3.0,7.0,97,0.00,,,0.00,,2013-05-21 02:41:00,
2013-05-20 21:52:00,60.0,59.0,-100.00,ESE,115,2.0,4.0,97,0.00,,,0.00,,2013-05-21 02:52:00,
2013-05-20 22:02:00,61.0,59.0,-100.00,NE,50,3.0,4.0,97,0.00,,,0.00,,2013-05-21 03:02:00,
2013-05-20 22:11:00,61.0,59.0,-100.00,ENE,70,3.0,4.0,97,0.00,,,0.00,,2013-05-21 03:11:00,
2013-05-20 22:21:00,60.0,59.0,-100.00,ESE,110,3.0,6.0,97,0.00,,,0.00,,2013-05-21 03:21:00,
2013-05-20 22:33:00,60.0,59.0,-100.00,East,85,4.0,6.0,97,0.00,,,0.00,,2013-05-21 03:33:00,
2013-05-20 22:43:00,60.0,59.0,-100.00,ENE,70,0.0,4.0,97,0.00,,,0.00,,2013-05-21 03:43:00,
2013-05-20 22:53:00,60.0,59.0,-100.00,NNE,30,3.0,4.0,97,0.00,,,0.00,,2013-05-21 03:53:00,
2013-05-20 23:03:00,60.0,59.0,-100.00,WNW,285,1.0,4.0,97,0.00,,,0.00,,2013-05-21 04:03:00,
2013-05-20 23:13:00,60.0,59.0,-100.00,West,260,3.0,4.0,98,0.00,,,0.00,,2013-05-21 04:13:00,
2013-05-20 23:23:00,60.0,59.0,-100.00,NE,45,3.0,6.0,98,0.00,,,0.00,,2013-05-21 04:23:00,
2013-05-20 23:33:00,59.0,59.0,-100.00,NE,50,7.0,13.0,98,0.00,,,0.00,,2013-05-21 04:33:00,
2013-05-20 23:52:00,56.0,55.0,-100.00,ENE,60,7.0,14.0,98,0.00,,,0.00,,2013-05-21 04:52:00,